TimeEST,TemperatureF,Dew PointF,Humidity,Sea Level PressureIn,VisibilityMPH,Wind Direction,Wind SpeedMPH,Gust SpeedMPH,PrecipitationIn,Events,Conditions,WindDirDegrees,DateUTC
12:07 AM,66.2,64.4,94,30.11,10.0,NW,3.5,-,N/A,,Scattered Clouds,320,2013-01-20 05:07:00
12:18 AM,66.2,64.4,94,30.11,10.0,NW,3.5,-,N/A,,Mostly Cloudy,320,2013-01-20 05:18:00
12:53 AM,64.9,64.0,97,30.11,10.0,NNW,3.5,-,N/A,,Overcast,340,2013-01-20 05:53:00
1:13 AM,64.4,64.4,100,30.10,0.2,Calm,Calm,-,N/A,Fog,Fog,0,2013-01-20 06:13:00
1:53 AM,64.9,64.0,97,30.10,0.2,Calm,Calm,-,N/A,Fog,Fog,0,2013-01-20 06:53:00
1:58 AM,64.4,64.4,100,30.09,0.2,Calm,Calm,-,N/A,Fog,Fog,0,2013-01-20 06:58:00
2:42 AM,64.4,64.4,100,30.08,0.2,Calm,Calm,-,N/A,Fog,Fog,0,2013-01-20 07:42:00
2:53 AM,64.0,64.0,100,30.09,0.2,Calm,Calm,-,N/A,Fog,Fog,0,2013-01-20 07:53:00
3:42 AM,64.4,64.4,100,30.08,0.2,Calm,Calm,-,N/A,Fog,Fog,0,2013-01-20 08:42:00
3:53 AM,64.0,63.0,96,30.09,0.2,Calm,Calm,-,N/A,Fog,Fog,0,2013-01-20 08:53:00
4:00 AM,64.4,64.4,100,30.07,10.0,Calm,Calm,-,N/A,,Overcast,0,2013-01-20 09:00:00
4:41 AM,64.4,62.6,94,30.08,10.0,Calm,Calm,-,N/A,,Overcast,0,2013-01-20 09:41:00
4:53 AM,64.0,63.0,96,30.08,10.0,Calm,Calm,-,0.01,,Overcast,0,2013-01-20 09:53:00
5:53 AM,64.0,63.0,96,30.10,10.0,West,5.8,-,N/A,,Mostly Cloudy,270,2013-01-20 10:53:00
6:17 AM,64.4,62.6,94,30.10,10.0,West,4.6,-,N/A,,Mostly Cloudy,280,2013-01-20 11:17:00
6:26 AM,64.4,64.4,100,30.10,4.0,West,6.9,-,N/A,,Overcast,280,2013-01-20 11:26:00
6:53 AM,64.0,64.0,100,30.12,4.0,WNW,4.6,-,N/A,,Overcast,290,2013-01-20 11:53:00
7:53 AM,64.0,64.0,100,30.13,10.0,NNW,3.5,-,N/A,,Overcast,340,2013-01-20 12:53:00
8:04 AM,64.4,64.4,100,30.13,0.2,Calm,Calm,-,N/A,Fog,Fog,0,2013-01-20 13:04:00
8:53 AM,64.9,64.9,100,30.15,0.5,Calm,Calm,-,N/A,Fog,Fog,0,2013-01-20 13:53:00
9:32 AM,66.2,66.2,100,30.15,7.0,Calm,Calm,-,N/A,,Partly Cloudy,0,2013-01-20 14:32:00
9:53 AM,70.0,66.9,90,30.17,10.0,NNW,3.5,-,N/A,,Partly Cloudy,330,2013-01-20 14:53:00
10:53 AM,75.9,66.9,74,30.15,10.0,NNW,3.5,-,N/A,,Partly Cloudy,330,2013-01-20 15:53:00
11:53 AM,79.0,64.9,62,30.11,10.0,Variable,3.5,-,N/A,,Scattered Clouds,0,2013-01-20 16:53:00
12:53 PM,79.0,62.1,56,30.07,10.0,Calm,Calm,-,N/A,,Scattered Clouds,0,2013-01-20 17:53:00
1:53 PM,78.1,66.0,66,30.04,10.0,ENE,8.1,-,N/A,,Scattered Clouds,70,2013-01-20 18:53:00
2:53 PM,77.0,66.0,69,30.03,10.0,East,9.2,-,N/A,,Mostly Cloudy,90,2013-01-20 19:53:00
3:53 PM,75.9,66.0,71,30.03,10.0,NE,8.1,-,N/A,,Scattered Clouds,50,2013-01-20 20:53:00
4:53 PM,75.0,66.0,73,30.05,10.0,Variable,6.9,-,N/A,,Scattered Clouds,0,2013-01-20 21:53:00
5:53 PM,73.9,66.0,76,30.05,10.0,NE,6.9,-,0.00,,Mostly Cloudy,50,2013-01-20 22:53:00
6:53 PM,73.9,64.9,73,30.06,10.0,NNE,3.5,-,N/A,,Scattered Clouds,30,2013-01-20 23:53:00
7:53 PM,73.9,66.0,76,30.06,10.0,NNE,3.5,-,N/A,,Scattered Clouds,20,2013-01-21 00:53:00
8:53 PM,73.0,64.9,76,30.06,10.0,NE,3.5,-,N/A,,Mostly Cloudy,40,2013-01-21 01:53:00
9:10 PM,73.4,66.2,78,30.06,10.0,Calm,Calm,-,0.03,Rain,Light Rain,0,2013-01-21 02:10:00
9:53 PM,71.1,68.0,90,30.08,10.0,NNW,3.5,-,0.10,,Mostly Cloudy,340,2013-01-21 02:53:00
10:53 PM,70.0,66.9,90,30.07,10.0,Calm,Calm,-,N/A,,Scattered Clouds,0,2013-01-21 03:53:00
11:53 PM,69.1,66.9,93,30.06,10.0,Calm,Calm,-,N/A,,Partly Cloudy,0,2013-01-21 04:53:00